Corpus Christi, TX

5:24 AM CDT on May 20, 2018 (GMT -0500)
Corpus Christi International

Weather History for KCRP - March, 2013

Change the Weather History Date:

Friday, March 8, 2013

  Actual Average Record
Temperature  
Mean Temperature 74 °F 64 °F  
Max Temperature 80 °F 74 °F 88 °F (1999)
Min Temperature 67 °F 55 °F 31 °F (1956)
Degree Days  
Heating Degree Days 0 4  
Month to date heating degree days 32 32  
Since 1 July heating degree days 484 832  
Cooling Degree Days 9 3  
Month to date cooling degree days 20 23  
Year to date cooling degree days 164 99  
Growing Degree Days 25 (Base 50)    
Moisture  
Dew Point 62 °F    
Average Humidity 71    
Maximum Humidity 81    
Minimum Humidity 60    
Precipitation  
Precipitation T in 0.07 in 1.04 in (2015)
Month to date precipitation T 0.56  
Year to date precipitation 1.69 4.03  
Snow  
Snow 0.00 in - - ()
Month to date snowfall 0.0  
Since 1 July snowfall 0.0  
Snow Depth 0.00 in    
Sea Level Pressure  
Sea Level Pressure 30.06 in    
Wind  
Wind Speed 20 mph (SE)    
Max Wind Speed 30 mph    
Max Gust Speed 35 mph    
Visibility 10 miles    
Events Rain    
T = Trace of Precipitation, MM = Missing Value Source: NWS Daily Summary

Daily Weather History Graph

Daily Weather History Graph

Search for Another Location

Airport or City:

Astronomy

Mar. 08, 2013 Rise Set
Actual Time 6:46 AM CST 6:34 PM CST
Civil Twilight 6:23 AM CST 6:58 PM CST
Nautical Twilight 5:56 AM CST 7:25 PM CST
Astronomical Twilight 5:29 AM CST 7:52 PM CST
Moon 4:18 AM CST (3/8) 3:43 PM CST (3/8)
Length of Visible Light 12h 34m
Length of Day
11h 48m
Waning Crescent, 11% of the Moon is Illuminated
Mar 8
Waning Crescent
Mar 11
New
Mar 19
First Quarter
Mar 27
Full
Apr 2
Last Quarter

Hourly Weather History & Observations

Time (CST) Temp. Dew Point Humidity Pressure Visibility Wind Dir Wind Speed Gust Speed Precip Events Conditions
12:51 AM 68.0 °F 61.0 °F 78% 30.12 in 10.0 mi SE 13.8 mph - N/A   Partly Cloudy
1:51 AM 68.0 °F 62.1 °F 81% 30.09 in 10.0 mi SE 13.8 mph - N/A   Mostly Cloudy
2:51 AM 68.0 °F 62.1 °F 81% 30.08 in 10.0 mi SE 12.7 mph - N/A   Mostly Cloudy
3:51 AM 69.1 °F 62.1 °F 78% 30.05 in 10.0 mi SE 16.1 mph - N/A   Overcast
4:51 AM 69.1 °F 62.1 °F 78% 30.05 in 10.0 mi SE 16.1 mph - N/A   Overcast
5:51 AM 70.0 °F 62.1 °F 76% 30.06 in 10.0 mi SE 17.3 mph - N/A   Overcast
6:38 AM 69.8 °F 62.6 °F 78% 30.07 in 10.0 mi SSE 17.3 mph - N/A   Overcast
6:51 AM 70.0 °F 63.0 °F 78% 30.07 in 10.0 mi SE 17.3 mph - N/A   Overcast
7:51 AM 70.0 °F 63.0 °F 78% 30.08 in 10.0 mi SE 18.4 mph - 0.00 in   Overcast
8:51 AM 72.0 °F 64.0 °F 76% 30.09 in 10.0 mi SE 19.6 mph - 0.00 in   Mostly Cloudy
9:51 AM 73.0 °F 64.0 °F 73% 30.10 in 10.0 mi SSE 18.4 mph 25.3 mph N/A   Mostly Cloudy
10:51 AM 75.0 °F 64.0 °F 69% 30.11 in 10.0 mi SE 20.7 mph 28.8 mph N/A   Overcast
11:51 AM 75.9 °F 64.0 °F 67% 30.09 in 10.0 mi SE 21.9 mph 31.1 mph N/A   Overcast
12:51 PM 77.0 °F 63.0 °F 62% 30.05 in 10.0 mi SE 26.5 mph 33.4 mph N/A   Mostly Cloudy
1:51 PM 77.0 °F 62.1 °F 60% 30.03 in 10.0 mi SE 25.3 mph 34.5 mph N/A   Mostly Cloudy
2:51 PM 75.9 °F 62.1 °F 62% 30.03 in 10.0 mi SE 28.8 mph - N/A   Overcast
3:51 PM 75.0 °F 62.1 °F 64% 30.04 in 10.0 mi SE 27.6 mph 32.2 mph N/A   Overcast
4:27 PM 73.4 °F 62.6 °F 69% 30.03 in 10.0 mi SE 25.3 mph 31.1 mph N/A   Overcast
4:51 PM 73.0 °F 61.0 °F 66% 30.04 in 10.0 mi SE 19.6 mph - N/A   Overcast
5:51 PM 72.0 °F 62.1 °F 71% 30.04 in 10.0 mi SE 20.7 mph - 0.00 in Rain Light Rain
6:51 PM 71.1 °F 61.0 °F 70% 30.05 in 10.0 mi SE 19.6 mph - 0.00 in   Mostly Cloudy
7:51 PM 71.1 °F 62.1 °F 73% 30.03 in 10.0 mi SE 20.7 mph - N/A   Mostly Cloudy
8:51 PM 71.1 °F 62.1 °F 73% 30.03 in 10.0 mi SE 20.7 mph - N/A   Scattered Clouds
9:51 PM 71.1 °F 62.1 °F 73% 30.03 in 10.0 mi SSE 19.6 mph - N/A   Partly Cloudy
10:51 PM 71.1 °F 62.1 °F 73% 30.03 in 10.0 mi SSE 16.1 mph - N/A   Scattered Clouds
11:51 PM 71.1 °F 62.1 °F 73% 30.01 in 10.0 mi SSE 17.3 mph - N/A   Mostly Cloudy